402P/LINEAR (2021)

Japanese version
Home page
Updated on November 26, 2022

---------------------------------------------------------------------

* Profile

Designation 402P/2020 Q3
Recovery Date August 18, 2020
Magnitude 19.5 mag
Recoverer E. Schwab (Egelsbach, Germany)

* Pictures

* Orbital Elements

Epoch 2022 Aug. 9.0 TT = JDT 2459800.5
T 2021 Dec. 14.60632 TT                                 Rudenko
q   3.9378682            (2000.0)            P               Q
n   0.05298174     Peri.  326.73627     -0.06203011     -0.90089459
a   7.0207781      Node   123.09314     +0.99048048     -0.10855752
e   0.4391123      Incl.   30.84788     +0.12288488     +0.42024303
P  18.6
>From 1772 observations 2001 Nov. 22-2022 Nov. 1, mean residual 0".6.
     Nongravitational parameters A1 = +0.00, A2 = +0.0000.

* Finding Charts

* Magnitudes Graph

        m1 = -5   + 5 log d + 30   log r  [    ,-280]  (             - 2021 Mar.  9)
        m1 =  6.0 + 5 log d + 12.5 log r  [-280,    ]  (2021 Mar.  9 -             )

---------------------------------------------------------------------

The orbital elements are published on M.P.E.C. 2022-V95.
The charts are made with StellaNavigator Ver.10 (AstroArts).
The magnitudes graphs are made with Comet for Windows.

---------------------------------------------------------------------

Copyright(C) Seiichi Yoshida (comet@aerith.net). All rights reserved.